* Astronomy

Members Login
Username 
 
Password 
    Remember Me  
Post Info TOPIC: COSMOS 2405


L

Posts: 131433
Date:
RE: COSMOS 2405
Permalink  
 


The cosmos 2405 satellite burned up in the atmosphere on 16 June 2006 @ 08:08 UTC ± 45 minutes.

cosmos2405 the end
(116kb, 600 x 360)

__________________


L

Posts: 131433
Date:
Permalink  
 

Updated re-entry time:
16th June 2006 @ 19:54 UTC ± 16 hours

__________________


L

Posts: 131433
Date:
Permalink  
 

The Cosmos 2405 ( Eorsat), that was launched on the 28th May, 2004, from the Plesetsk Cosmodrome, is predicted to re-enter the Earths atmosphere sometime after June 9th, 2006.

Cosmos 2405
Position of satellite at 22:15 9th June, 2006


TLE Data

COSMOS 2405
1 28350U 04020A 06158.45267612 .01004155 70632-5 70776-3 0 8557
2 28350 065.0081 018.3995 0065813 242.7848 116.6654 16.10816641115070
1 28350U 04020A 06158.20432156 .00942477 70564-5 68254-3 0 8545
2 28350 065.0082 019.3145 0066876 242.8101 116.7869 16.10319661115037
1 28350U 04020A 06158.14220588 .00728173 70542-5 55215-3 0 8535
2 28350 065.0101 019.5464 0064954 241.5747 117.8880 16.09991098115024
1 28350U 04020A 06157.95584887 +.00694188 +70487-5 +53112-3 0 08561
2 28350 065.0119 020.2356 0066381 241.2809 118.1693 16.09680308114994
1 28350U 04020A 06157.89373003 .00672990 70476-5 51640-3 0 8525
2 28350 065.0112 020.4631 0066982 241.3144 118.1398 16.09560502114989


__________________


L

Posts: 131433
Date:
Permalink  
 

The Cosmos-2405 satellite has lowered its orbit in preparation for re-entry.

Cosmos-2405 is a naval Eorsat reconnaissance satellite of the US-P system, launched on May 28, 2004, from launch pad No. 20 on launch complex No. 90 at the Baikonur launch site.
The satellite was given an international designation 2004-020A and the NORAD number 28350.

Perigee: 412 km
Apogee: 427 km
Inclination: 65°
Period: 92.8 min

TLE Data:

COSMOS 2405
1 28350U 04020A 06113.45724537 .00034188 70235-5 10047-3 0 6989
2 28350 065.0188 180.0177 0129604 254.7398 295.4298 15.80687832107906

__________________
Page 1 of 1  sorted by
Quick Reply

Please log in to post quick replies.



Create your own FREE Forum
Report Abuse
Powered by ActiveBoard